Sarasota, FL

11:14 PM EDT on May 25, 2017 (GMT -0400)
Sarasota-bradenton

Weather History for KSRQ - March, 2012

Change the Weather History Date:

Saturday, March 31, 2012

  Actual Average Record
Temperature  
Mean Temperature 75 °F 69 °F  
Max Temperature 82 °F 78 °F 89 °F (1965)
Min Temperature 67 °F 59 °F 39 °F (1971)
Degree Days  
Heating Degree Days 0 1  
Month to date heating degree days 7 50  
Since 1 July heating degree days 205 467  
Cooling Degree Days 10 4  
Month to date cooling degree days 264 100  
Year to date cooling degree days 443 204  
Growing Degree Days 25 (Base 50)    
Moisture  
Dew Point 67 °F    
Average Humidity 79    
Maximum Humidity 87    
Minimum Humidity 69    
Precipitation  
Precipitation 0.13 in 0.13 in 2.55 in (2011)
Month to date precipitation 1.41 3.86  
Year to date precipitation 3.14 9.05  
Sea Level Pressure  
Sea Level Pressure 29.96 in    
Wind  
Wind Speed 9 mph (SSW)    
Max Wind Speed 25 mph    
Max Gust Speed 35 mph    
Visibility 9 miles    
Events Rain    
T = Trace of Precipitation, MM = Missing Value Source: NWS Daily Summary

Daily Weather History Graph

Daily Weather History Graph

Search for Another Location

Airport or City:

Trip Planner

Search our weather history database for the weather conditions in past years. The results will help you decide how hot, cold, wet, or windy it might be!

Date:

Astronomy

Mar. 31, 2012 Rise Set
Actual Time 7:21 AM EDT 7:47 PM EDT
Civil Twilight 6:57 AM EDT 8:10 PM EDT
Nautical Twilight 6:30 AM EDT 8:38 PM EDT
Astronomical Twilight 6:02 AM EDT 9:06 PM EDT
Moon 1:46 PM EDT (3/31) 2:43 AM EDT (3/31)
Length of Visible Light 13h 13m
Length of Day
12h 26m
First Quarter, 59% of the Moon is Illuminated
Mar 31
First Quarter
Apr 6
Full
Apr 13
Last Quarter
Apr 21
New
Apr 29
First Quarter

Hourly Weather History & Observations

Time (EDT) Temp. Heat Index Dew Point Humidity Pressure Visibility Wind Dir Wind Speed Gust Speed Precip Events Conditions
12:53 AM 70.0 °F - 64.9 °F 84% 29.98 in 10.0 mi SE 4.6 mph - N/A   Clear
1:53 AM 68.0 °F - 64.9 °F 90% 29.98 in 10.0 mi ESE 3.5 mph - N/A   Clear
2:53 AM 69.1 °F - 64.9 °F 87% 29.98 in 10.0 mi SE 4.6 mph - N/A   Clear
3:53 AM 68.0 °F - 64.9 °F 90% 29.98 in 10.0 mi SSE 4.6 mph - N/A   Partly Cloudy
4:53 AM 69.1 °F - 64.9 °F 87% 29.96 in 10.0 mi SSE 5.8 mph - N/A   Partly Cloudy
5:53 AM 69.1 °F - 64.9 °F 87% 29.96 in 10.0 mi SE 6.9 mph - N/A   Partly Cloudy
6:53 AM 68.0 °F - 64.9 °F 90% 29.97 in 10.0 mi SE 5.8 mph - N/A   Partly Cloudy
7:53 AM 69.1 °F - 64.9 °F 87% 29.99 in 10.0 mi SE 6.9 mph - N/A   Scattered Clouds
8:51 AM 73.4 °F - 66.2 °F 78% 29.99 in 10.0 mi SE 5.8 mph - N/A   Mostly Cloudy
8:53 AM 73.9 °F - 66.9 °F 79% 29.99 in 10.0 mi SE 5.8 mph - N/A   Mostly Cloudy
9:53 AM 78.1 °F - 68.0 °F 71% 29.99 in 10.0 mi South 12.7 mph - N/A   Mostly Cloudy
10:07 AM 78.8 °F - 68.0 °F 69% 29.98 in 10.0 mi South 11.5 mph - N/A   Scattered Clouds
10:53 AM 79.0 °F - 69.1 °F 72% 30.00 in 10.0 mi SSW 11.5 mph - N/A   Clear
11:53 AM 79.0 °F - 69.1 °F 72% 29.99 in 10.0 mi SSW 12.7 mph - N/A   Partly Cloudy
12:53 PM 80.1 °F 83.2 °F 70.0 °F 71% 29.97 in 10.0 mi SSW 13.8 mph 19.6 mph N/A   Mostly Cloudy
1:53 PM 82.0 °F 86.3 °F 71.1 °F 69% 29.95 in 10.0 mi SSW 15.0 mph - N/A   Scattered Clouds
2:35 PM 80.6 °F 84.6 °F 71.6 °F 74% 29.95 in 10.0 mi SW 13.8 mph 20.7 mph N/A   Mostly Cloudy
2:53 PM 79.0 °F - 71.1 °F 77% 29.94 in 10.0 mi SW 13.8 mph - N/A   Mostly Cloudy
3:17 PM 69.8 °F - 64.4 °F 83% 29.95 in 2.5 mi NW 20.7 mph 31.1 mph 0.08 in Rain Rain
3:26 PM 69.8 °F - 64.4 °F 83% 29.95 in 3.0 mi NW 15.0 mph 23.0 mph 0.11 in Rain Rain
3:53 PM 73.9 °F - 66.9 °F 79% 29.93 in 10.0 mi NW 8.1 mph - 0.11 in   Mostly Cloudy
4:53 PM 75.9 °F - 64.9 °F 69% 29.91 in 10.0 mi WNW 6.9 mph - N/A   Clear
5:53 PM 75.0 °F - 64.9 °F 71% 29.92 in 10.0 mi West 5.8 mph - N/A   Clear
6:53 PM 72.0 °F - 66.0 °F 81% 29.94 in 7.0 mi WNW 16.1 mph 25.3 mph 0.01 in Rain Light Rain
7:53 PM 72.0 °F - 64.0 °F 76% 29.92 in 10.0 mi West 5.8 mph - 0.01 in   Partly Cloudy
8:53 PM 73.0 °F - 66.0 °F 79% 29.91 in 10.0 mi South 5.8 mph - N/A   Clear
9:53 PM 73.9 °F - 66.9 °F 79% 29.91 in 10.0 mi West 10.4 mph - N/A   Clear
10:53 PM 73.9 °F - 66.9 °F 79% 29.92 in 10.0 mi West 9.2 mph - N/A   Clear
11:53 PM 73.0 °F - 66.9 °F 81% 29.92 in 10.0 mi NW 8.1 mph - N/A   Clear